Date String (YYYY-MM-DD hh:mm:ss) UTC,Instrument flags,Ambient pressure (hPa),Sample flow (lpm),Bypass flow (lpm),Sample temperature (°C),Ambient temperature (°C),ASC tube jacket temperature (°C),LED temperature (°C),Box temperature (°C),Sample RH (%),Span deviation,Mass concentration (μg/m³),Mass concentration (μg/m³),Mass concentration (μg/m³)
DateTimeUTC,F1_M11,P_M11,Q1_M11,Q2_M11,T1_M11,T2_M11,T3_M11,T4_M11,T5_M11,U1_M11,ZSPAN_M11,X0_M11,X2_M11,X1_M11
2022-01-31 02:00:00,,0823.9,5.00,0.00,27.9,27.0,00.0,36.9,29.6,05.8,0000.0,0010.68,0005.36,0004.76
2022-01-31 02:01:00,,0824.0,4.99,0.00,27.8,27.0,00.0,36.9,29.6,05.8,0000.0,0010.71,0005.36,0004.79
2022-01-31 02:02:00,,0824.0,5.02,0.00,27.8,27.0,00.0,36.9,29.5,05.8,0000.0,0010.97,0005.33,0004.77
2022-01-31 02:03:00,,0824.0,4.99,0.00,27.8,27.0,00.0,36.8,29.5,05.8,0000.0,0010.68,0005.30,0004.76
2022-01-31 02:04:00,,0824.0,5.02,0.00,27.8,27.0,00.0,36.8,29.5,05.7,0000.0,0010.34,0005.24,0004.73
2022-01-31 02:05:00,,0824.0,4.99,0.00,27.8,27.0,00.0,36.8,29.5,05.6,0000.0,0010.20,0005.18,0004.67
2022-01-31 02:06:00,,0824.1,5.01,0.00,27.8,27.0,00.0,36.8,29.5,05.6,0000.0,0010.16,0005.13,0004.62
2022-01-31 02:07:00,,0824.1,5.01,0.00,27.7,26.9,00.0,36.8,29.5,05.5,0000.0,0010.02,0005.07,0004.58
2022-01-31 02:08:00,,0824.1,5.00,0.00,27.7,26.9,00.0,36.8,29.5,05.6,0000.0,0009.97,0005.03,0004.53
2022-01-31 02:09:00,,0824.1,4.99,0.00,27.7,26.9,00.0,36.8,29.4,05.7,0000.0,0009.61,0005.04,0004.53
2022-01-31 02:10:00,,0824.1,5.02,0.00,27.7,26.9,00.0,36.8,29.5,05.8,0000.0,0009.67,0005.05,0004.56
2022-01-31 02:11:00,,0824.1,4.98,0.00,27.7,26.9,00.0,36.8,29.5,05.8,0000.0,0009.72,0005.04,0004.55
2022-01-31 02:12:00,,0824.1,5.00,0.00,27.7,26.9,00.0,36.8,29.5,05.8,0000.0,0010.37,0005.08,0004.56
2022-01-31 02:13:00,,0824.0,5.01,0.00,27.7,26.9,00.0,36.7,29.5,05.7,0000.0,0010.41,0005.10,0004.57
2022-01-31 02:14:00,,0824.0,4.98,0.00,27.7,26.9,00.0,36.7,29.5,05.7,0000.0,0010.51,0005.11,0004.56
2022-01-31 02:15:00,,0824.0,5.02,0.00,27.7,26.9,00.0,36.7,29.5,05.8,0000.0,0010.63,0005.15,0004.57
2022-01-31 02:16:00,,0824.0,4.98,0.00,27.7,26.9,00.0,36.7,29.4,05.8,0000.0,0011.06,0005.22,0004.61
2022-01-31 02:17:00,,0823.9,5.01,0.00,27.7,26.9,00.0,36.7,29.4,05.9,0000.0,0011.98,0005.27,0004.64
2022-01-31 02:18:00,,0823.9,5.00,0.00,27.7,26.9,00.0,36.7,29.4,05.8,0000.0,0012.09,0005.31,0004.68
2022-01-31 02:19:00,,0823.9,4.99,0.00,27.6,26.8,00.0,36.7,29.4,05.7,0000.0,0012.00,0005.30,0004.70
2022-01-31 02:20:00,,0823.9,5.01,0.00,27.6,26.8,00.0,36.7,29.3,05.7,0000.0,0011.97,0005.31,0004.71
2022-01-31 02:21:00,,0823.9,5.00,0.00,27.6,26.8,00.0,36.7,29.3,05.7,0000.0,0011.59,0005.28,0004.68
2022-01-31 02:22:00,,0823.9,5.01,0.00,27.6,26.8,00.0,36.7,29.3,05.7,0000.0,0011.18,0005.24,0004.66
2022-01-31 02:23:00,,0823.9,4.99,0.00,27.6,26.8,00.0,36.7,29.3,05.7,0000.0,0010.60,0005.15,0004.61
2022-01-31 02:24:00,,0824.0,5.00,0.00,27.6,26.8,00.0,36.6,29.3,05.7,0000.0,0009.88,0005.07,0004.58
2022-01-31 02:25:00,,0824.0,5.01,0.00,27.6,26.8,00.0,36.6,29.3,05.7,0000.0,0009.77,0005.03,0004.56
2022-01-31 02:26:00,,0824.0,5.00,0.00,27.5,26.7,00.0,36.6,29.3,05.7,0000.0,0009.66,0004.98,0004.55
2022-01-31 02:27:00,,0824.0,5.00,0.00,27.5,26.7,00.0,36.6,29.3,05.8,0000.0,0009.34,0004.91,0004.51
2022-01-31 02:28:00,,0824.0,4.98,0.00,27.5,26.7,00.0,36.6,29.3,05.8,0000.0,0008.48,0004.88,0004.50
2022-01-31 02:29:00,,0824.0,5.01,0.00,27.5,26.7,00.0,36.6,29.2,05.7,0000.0,0008.41,0004.87,0004.51
2022-01-31 02:30:00,,0824.0,4.99,0.00,27.5,26.7,00.0,36.6,29.2,05.7,0000.0,0008.43,0004.90,0004.55
2022-01-31 02:31:00,,0824.0,5.01,0.00,27.5,26.7,00.0,36.6,29.2,05.8,0000.0,0008.50,0004.96,0004.62
2022-01-31 02:32:00,,0824.0,4.98,0.00,27.5,26.7,00.0,36.5,29.2,05.8,0000.0,0008.57,0005.03,0004.72
2022-01-31 02:33:00,,0823.9,5.01,0.00,27.5,26.7,00.0,36.5,29.2,05.8,0000.0,0008.61,0005.10,0004.82
2022-01-31 02:34:00,,0823.9,5.00,0.00,27.4,26.7,00.0,36.5,29.2,05.8,0000.0,0008.78,0005.23,0004.93
2022-01-31 02:35:00,,0823.9,4.98,0.00,27.4,26.7,00.0,36.5,29.2,05.7,0000.0,0008.97,0005.33,0005.01
2022-01-31 02:36:00,,0823.9,5.02,0.00,27.4,26.6,00.0,36.5,29.2,05.7,0000.0,0009.10,0005.41,0005.09
2022-01-31 02:37:00,,0823.9,4.98,0.00,27.4,26.6,00.0,36.5,29.2,05.7,0000.0,0009.28,0005.52,0005.17
2022-01-31 02:38:00,,0823.9,5.01,0.00,27.4,26.6,00.0,36.5,29.2,05.6,0000.0,0009.33,0005.60,0005.24
2022-01-31 02:39:00,,0823.9,5.00,0.00,27.4,26.6,00.0,36.5,29.2,05.6,0000.0,0009.29,0005.64,0005.30
2022-01-31 02:40:00,,0823.9,4.99,0.00,27.4,26.6,00.0,36.5,29.2,05.6,0000.0,0009.40,0005.69,0005.35
2022-01-31 02:41:00,,0823.9,4.99,0.00,27.4,26.6,00.0,36.4,29.2,05.6,0000.0,0009.49,0005.76,0005.41
2022-01-31 02:42:00,,0823.9,5.01,0.00,27.4,26.6,00.0,36.4,29.2,05.7,0000.0,0009.58,0005.78,0005.43
2022-01-31 02:43:00,,0823.9,4.99,0.00,27.4,26.6,00.0,36.4,29.2,05.7,0000.0,0009.45,0005.77,0005.42
2022-01-31 02:44:00,,0823.9,5.01,0.00,27.4,26.6,00.0,36.4,29.2,05.7,0000.0,0009.49,0005.78,0005.40
2022-01-31 02:45:00,,0823.9,5.01,0.00,27.4,26.6,00.0,36.4,29.2,05.7,0000.0,0009.34,0005.74,0005.37
2022-01-31 02:46:00,,0823.9,4.98,0.00,27.4,26.6,00.0,36.4,29.1,05.7,0000.0,0009.28,0005.72,0005.35
2022-01-31 02:47:00,,0823.9,5.01,0.00,27.4,26.6,00.0,36.4,29.1,05.7,0000.0,0009.21,0005.72,0005.34
2022-01-31 02:48:00,,0823.9,4.99,0.00,27.4,26.5,00.0,36.4,29.1,05.7,0000.0,0009.14,0005.72,0005.34
2022-01-31 02:49:00,,0823.9,5.01,0.00,27.4,26.5,00.0,36.4,29.1,05.7,0000.0,0009.11,0005.71,0005.34
2022-01-31 02:50:00,,0823.9,4.98,0.00,27.4,26.5,00.0,36.4,29.1,05.7,0000.0,0009.24,0005.75,0005.36
2022-01-31 02:51:00,,0823.9,5.00,0.00,27.4,26.5,00.0,36.4,29.1,05.7,0000.0,0009.17,0005.74,0005.36
2022-01-31 02:52:00,,0823.9,5.01,0.00,27.4,26.5,00.0,36.4,29.1,05.7,0000.0,0009.09,0005.74,0005.35
2022-01-31 02:53:00,,0823.9,4.99,0.00,27.3,26.5,00.0,36.3,29.1,05.7,0000.0,0008.96,0005.72,0005.35
2022-01-31 02:54:00,,0823.9,5.00,0.00,27.3,26.5,00.0,36.3,29.1,05.7,0000.0,0008.87,0005.70,0005.35
2022-01-31 02:55:00,,0823.9,5.00,0.00,27.3,26.5,00.0,36.3,29.1,05.7,0000.0,0009.24,0005.69,0005.36
2022-01-31 02:56:00,,0824.0,5.00,0.00,27.3,26.5,00.0,36.3,29.0,05.7,0000.0,0009.83,0005.71,0005.38
2022-01-31 02:57:00,,0824.0,5.01,0.00,27.3,26.4,00.0,36.3,29.0,05.7,0000.0,0009.88,0005.69,0005.39
2022-01-31 02:58:00,,0823.9,4.99,0.00,27.3,26.4,00.0,36.3,29.0,05.7,0000.0,0009.95,0005.70,0005.39
2022-01-31 02:59:00,,0823.9,5.00,0.00,27.2,26.4,00.0,36.3,28.9,05.7,0000.0,0009.89,0005.68,0005.39
